Saginaw Browne, MI

9:28 PM EDT on April 28, 2017 (GMT -0400)
Saginaw County-Browne

Weather History for KHYX - April, 2014

Change the Weather History Date:

Tuesday, April 1, 2014

  Actual Average (KMBS) Record (KMBS)
Temperature  
Mean Temperature 46 °F -  
Max Temperature 59 °F 47 °F 69 °F (2007)
Min Temperature 33 °F 30 °F 24 °F (2013)
Degree Days  
Heating Degree Days 19    
Moisture  
Dew Point 30 °F    
Average Humidity 63    
Maximum Humidity 75    
Minimum Humidity 46    
Precipitation  
Precipitation 0.00 in - - ()
Sea Level Pressure  
Sea Level Pressure 29.83 in    
Wind  
Wind Speed 15 mph (SSW)    
Max Wind Speed 26 mph    
Max Gust Speed 36 mph    
Visibility 10 miles    
Events Rain    
Averages and records for this station are not official NWS values.
T = Trace of Precipitation, MM = Missing Value Source: NWS Daily Summary

Daily Weather History Graph

Daily Weather History Graph

Search for Another Location

Airport or City:

Trip Planner

Search our weather history database for the weather conditions in past years. The results will help you decide how hot, cold, wet, or windy it might be!

Date:

Astronomy

Apr. 01, 2014 Rise Set
Actual Time 7:17 AM EDT 8:02 PM EDT
Civil Twilight 6:48 AM EDT 8:30 PM EDT
Nautical Twilight 6:14 AM EDT 9:05 PM EDT
Astronomical Twilight 5:38 AM EDT 9:41 PM EDT
Moon 8:15 AM EDT (4/1) 10:27 PM EDT (4/1)
Length of Visible Light 13h 42m
Length of Day
12h 44m
Waxing Crescent, 4% of the Moon is Illuminated
Apr 1
Waxing Crescent
Apr 7
First Quarter
Apr 15
Full
Apr 22
Last Quarter
Apr 29
New

Hourly Weather History & Observations

Time (EDT) Temp. Windchill Dew Point Humidity Pressure Visibility Wind Dir Wind Speed Gust Speed Precip Events Conditions
12:15 AM 44.6 °F 37.4 °F 24.8 °F 46% 29.91 in 10.0 mi SE 16.1 mph - N/A   Clear
12:35 AM 44.6 °F 37.4 °F 24.8 °F 46% 29.91 in 10.0 mi SE 16.1 mph - N/A   Clear
12:54 AM 44.6 °F 37.8 °F 26.6 °F 49% 29.91 in 10.0 mi SSE 15.0 mph - N/A   Clear
1:15 AM 44.6 °F 39.2 °F 26.6 °F 49% 29.91 in 10.0 mi SSE 10.4 mph - N/A   Mostly Cloudy
1:35 AM 44.6 °F 38.1 °F 26.6 °F 49% 29.92 in 10.0 mi SSE 13.8 mph - N/A   Overcast
1:55 AM 44.6 °F 38.8 °F 26.6 °F 49% 29.94 in 10.0 mi South 11.5 mph - N/A   Overcast
2:15 AM 44.6 °F 38.4 °F 26.6 °F 49% 29.93 in 10.0 mi SSE 12.7 mph 18.4 mph N/A   Overcast
2:35 AM 44.6 °F 38.1 °F 26.6 °F 49% 29.92 in 10.0 mi SSE 13.8 mph - N/A   Overcast
2:55 AM 44.6 °F 40.2 °F 26.6 °F 49% 29.93 in 10.0 mi South 8.1 mph - N/A   Overcast
3:15 AM 42.8 °F 37.5 °F 26.6 °F 53% 29.94 in 10.0 mi SSW 9.2 mph - N/A   Mostly Cloudy
3:35 AM 42.8 °F 38.0 °F 30.2 °F 61% 29.95 in 10.0 mi SW 8.1 mph - N/A Rain Rain
3:55 AM 42.8 °F 37.0 °F 32.0 °F 66% 29.88 in 10.0 mi East 10.4 mph - N/A Rain Light Rain
4:15 AM 42.8 °F 36.6 °F 30.2 °F 61% 29.86 in 10.0 mi East 11.5 mph 16.1 mph N/A   Overcast
4:35 AM 41.0 °F 39.0 °F 32.0 °F 70% 29.88 in 10.0 mi SSE 3.5 mph - N/A   Overcast
4:55 AM 41.0 °F 36.4 °F 32.0 °F 70% 29.87 in 10.0 mi SSE 6.9 mph - N/A   Overcast
5:15 AM 42.8 °F 36.6 °F 32.0 °F 66% 29.86 in 10.0 mi SSE 11.5 mph - N/A Rain Light Rain
5:35 AM 42.8 °F 37.0 °F 32.0 °F 66% 29.84 in 10.0 mi SE 10.4 mph - N/A Rain Rain
5:55 AM 42.8 °F 37.0 °F 32.0 °F 66% 29.84 in 7.0 mi SE 10.4 mph - N/A Rain Light Rain
6:15 AM 42.8 °F 34.3 °F 33.8 °F 70% 29.78 in 10.0 mi ESE 19.6 mph 24.2 mph N/A Rain Light Rain
6:35 AM 44.6 °F 36.9 °F 33.8 °F 66% 29.78 in 10.0 mi SE 18.4 mph - N/A   Overcast
6:55 AM 44.6 °F 37.8 °F 32.0 °F 61% 29.76 in 10.0 mi SE 15.0 mph - N/A   Overcast
7:15 AM 44.6 °F 38.4 °F 32.0 °F 61% 29.76 in 10.0 mi SSE 12.7 mph - N/A   Overcast
7:35 AM 44.6 °F 37.8 °F 33.8 °F 66% 29.74 in 10.0 mi SSE 15.0 mph - N/A   Overcast
7:55 AM 44.6 °F 38.1 °F 33.8 °F 66% 29.74 in 10.0 mi SSE 13.8 mph - N/A   Mostly Cloudy
8:15 AM 44.6 °F 38.4 °F 33.8 °F 66% 29.75 in 10.0 mi SSE 12.7 mph - N/A   Overcast
8:34 AM 46.4 °F 40.7 °F 35.6 °F 66% 29.73 in 10.0 mi SSE 12.7 mph - N/A   Overcast
8:55 AM 46.4 °F 41.5 °F 35.6 °F 66% 29.73 in 10.0 mi SSE 10.4 mph - N/A   Overcast
9:15 AM 48.2 °F - 35.6 °F 62% 29.72 in 10.0 mi South 12.7 mph - N/A   Overcast
9:34 AM 50.0 °F - 37.4 °F 62% 29.71 in 10.0 mi SSE 12.7 mph - N/A   Overcast
9:55 AM 51.8 °F - 37.4 °F 58% 29.70 in 10.0 mi South 16.1 mph - N/A   Overcast
10:15 AM 53.6 °F - 37.4 °F 54% 29.69 in 10.0 mi South 17.3 mph 23.0 mph N/A   Mostly Cloudy
10:34 AM 53.6 °F - 39.2 °F 58% 29.68 in 10.0 mi South 16.1 mph 24.2 mph N/A   Mostly Cloudy
10:55 AM 55.4 °F - 41.0 °F 58% 29.68 in 10.0 mi South 16.1 mph - N/A   Scattered Clouds
11:15 AM 59.0 °F - 41.0 °F 51% 29.66 in 10.0 mi South 23.0 mph 27.6 mph N/A   Mostly Cloudy
11:34 AM 57.2 °F - 41.0 °F 55% 29.66 in 10.0 mi SSW 20.7 mph 27.6 mph N/A   Overcast
11:55 AM 57.2 °F - 41.0 °F 55% 29.65 in 10.0 mi SSW 17.3 mph 27.6 mph N/A   Overcast
12:15 PM 51.8 °F - 35.6 °F 54% 29.67 in 10.0 mi West 25.3 mph 35.7 mph N/A   Overcast
12:34 PM 46.4 °F 38.1 °F 32.0 °F 57% 29.69 in 10.0 mi West 24.2 mph 29.9 mph N/A   Overcast
12:55 PM 46.4 °F 39.5 °F 32.0 °F 57% 29.70 in 10.0 mi West 17.3 mph 24.2 mph N/A   Overcast
1:15 PM 50.0 °F - 33.8 °F 54% 29.70 in 10.0 mi WSW 15.0 mph 20.7 mph N/A   Mostly Cloudy
1:35 PM 48.2 °F - 32.0 °F 54% 29.71 in 10.0 mi WSW 19.6 mph 32.2 mph N/A   Mostly Cloudy
1:55 PM 46.4 °F 39.5 °F 32.0 °F 57% 29.72 in 10.0 mi West 17.3 mph 34.5 mph N/A   Overcast
2:15 PM 44.6 °F 36.9 °F 32.0 °F 61% 29.73 in 10.0 mi West 18.4 mph 29.9 mph N/A   Overcast
2:35 PM 44.6 °F 35.9 °F 30.2 °F 57% 29.74 in 10.0 mi WSW 23.0 mph 31.1 mph N/A   Overcast
2:55 PM 42.8 °F 32.9 °F 28.4 °F 57% 29.75 in 10.0 mi West 26.5 mph 34.5 mph N/A   Overcast
3:15 PM 41.0 °F 32.2 °F 28.4 °F 61% 29.77 in 10.0 mi WSW 18.4 mph 31.1 mph N/A   Overcast
3:35 PM 39.2 °F 28.5 °F 28.4 °F 65% 29.78 in 10.0 mi West 24.2 mph 34.5 mph N/A   Overcast
3:55 PM 39.2 °F 29.0 °F 28.4 °F 65% 29.78 in 10.0 mi WSW 21.9 mph 31.1 mph N/A   Overcast
4:15 PM 37.4 °F 26.6 °F 28.4 °F 70% 29.79 in 10.0 mi WSW 21.9 mph 28.8 mph N/A   Overcast
4:35 PM 37.4 °F 26.4 °F 28.4 °F 70% 29.81 in 10.0 mi WSW 23.0 mph 34.5 mph N/A   Overcast
4:55 PM 37.4 °F 26.4 °F 26.6 °F 65% 29.81 in 10.0 mi West 23.0 mph 28.8 mph N/A   Overcast
5:15 PM 35.6 °F 24.2 °F 26.6 °F 70% 29.82 in 10.0 mi WSW 21.9 mph 29.9 mph N/A   Overcast
5:35 PM 35.6 °F 24.2 °F 26.6 °F 70% 29.84 in 10.0 mi West 21.9 mph 31.1 mph N/A   Overcast
5:55 PM 35.6 °F 23.2 °F 26.6 °F 70% 29.85 in 10.0 mi West 26.5 mph 31.1 mph N/A   Overcast
6:15 PM 33.8 °F 22.5 °F 26.6 °F 75% 29.86 in 10.0 mi WSW 19.6 mph 34.5 mph N/A   Overcast
6:34 PM 33.8 °F 22.2 °F 26.6 °F 75% 29.87 in 10.0 mi WSW 20.7 mph 31.1 mph N/A   Overcast
6:55 PM 33.8 °F 23.2 °F 26.6 °F 75% 29.88 in 10.0 mi WSW 17.3 mph 31.1 mph N/A   Overcast
7:15 PM 33.8 °F 23.2 °F 26.6 °F 75% 29.89 in 10.0 mi WSW 17.3 mph 27.6 mph N/A   Overcast
7:35 PM 33.8 °F 22.5 °F 26.6 °F 75% 29.89 in 10.0 mi WSW 19.6 mph 29.9 mph N/A   Overcast
7:55 PM 33.8 °F 22.8 °F 26.6 °F 75% 29.90 in 10.0 mi West 18.4 mph 24.2 mph N/A   Overcast
8:15 PM 33.8 °F 23.9 °F 26.6 °F 75% 29.91 in 10.0 mi WSW 15.0 mph 28.8 mph N/A   Overcast
8:35 PM 33.8 °F 22.8 °F 26.6 °F 75% 29.92 in 10.0 mi West 18.4 mph 28.8 mph N/A   Overcast
8:55 PM 33.8 °F 23.9 °F 26.6 °F 75% 29.93 in 10.0 mi West 15.0 mph 25.3 mph N/A   Overcast
9:15 PM 33.8 °F 23.9 °F 24.8 °F 70% 29.94 in 10.0 mi West 15.0 mph 28.8 mph N/A   Overcast
9:35 PM 33.8 °F 22.8 °F 24.8 °F 70% 29.95 in 10.0 mi West 18.4 mph 26.5 mph N/A   Overcast
9:55 PM 33.8 °F 24.3 °F 24.8 °F 70% 29.95 in 10.0 mi West 13.8 mph 20.7 mph N/A   Overcast
10:15 PM 33.8 °F 25.8 °F 24.8 °F 70% 29.96 in 10.0 mi West 10.4 mph 17.3 mph N/A   Overcast
10:35 PM 33.8 °F 25.3 °F 24.8 °F 70% 29.96 in 10.0 mi WSW 11.5 mph 19.6 mph N/A   Scattered Clouds
10:55 PM 33.8 °F 25.8 °F 24.8 °F 70% 29.97 in 10.0 mi WSW 10.4 mph 17.3 mph N/A   Clear
11:15 PM 33.8 °F 25.3 °F 24.8 °F 70% 29.98 in 10.0 mi WSW 11.5 mph 19.6 mph N/A   Clear
11:35 PM 33.8 °F 26.4 °F 26.6 °F 75% 29.98 in 10.0 mi WSW 9.2 mph - N/A   Clear
11:55 PM 33.8 °F 25.3 °F 26.6 °F 75% 29.98 in 10.0 mi West 11.5 mph - N/A   Clear